Flag for Brazil Weather past 2 weeks in Itabuna, Bahia, Brazil

Now
79 °F

Scattered showers. Partly sunny.


Feels Like: 81 °F
Forecast: 64 / 80 °F
Wind: 13 mph from South

Location: Salvador Aeroporto

Current Time: Aug 1, 2014 at 11:30:52 AM

Latest Report: Aug 1, 2014 at 10:00 AM


Visibility: 5 mi

Pressure: N/A

Humidity: 74%

Dew point: 70 °F

Location of ItabunaLocation

Historic Weather in Itabuna — Graph

°F

Itabuna temperature yesterday

Maximum temperature yesterday: 77 °F (at 11:00 AM)
Minimum temperature yesterday: 39 °F (at 4:00 PM)
Average temperature yesterday: 69 °F

Past Weeks' High & Low Weather Summary

 TemperatureHumidityPressure
High82 °F (Jul 20, 11:00 AM)100% (Jul 19, 6:00 AM)30.21 "Hg (Jul 19, 6:00 AM)
Low39 °F (Jul 31, 4:00 PM)66% (Jul 20, 11:00 AM)30.01 "Hg (Jul 25, 3:00 AM)
Average76 °F83%30.09 "Hg
* Reported Jul 17 10:00 AM — Aug 1 10:00 AM, Itabuna, Weather by CustomWeather, © 2014

Note: Actual official high and low records may vary slightly from our data, if they occured in-between our weather recording intervals... More about our weather records

Advertising

Itabuna weather history for previous 24 hours

 ConditionsComfort  
Time TempWeatherWind HumidityBarometerVisibility
10:00 AM
Aug 1
79 °FScattered showers. Partly sunny.13 mph74%N/A5 mi
9:00 AM77 °FPartly sunny.13 mph79%30.12 "HgN/A
7:00 AM75 °FPartly sunny.14 mph83%30.07 "HgN/A
6:00 AM75 °FPartly sunny.13 mph83%30.07 "HgN/A
5:00 AM75 °FPassing clouds.13 mph83%30.07 "HgN/A
4:00 AM75 °FPartly cloudy.13 mph83%30.04 "HgN/A
3:00 AM77 °FPartly cloudy.12 mph79%30.04 "HgN/A
2:00 AM77 °FPassing clouds.12 mph79%30.07 "Hg5 mi
1:00 AM75 °FPassing clouds.14 mph83%30.07 "Hg4 mi
12:00 AM75 °FFog.10 mph89%N/A3 mi
11:00 PM
Jul 31
70 °FLight rain. Fog.9 mph94%30.09 "Hg2 mi
9:00 PM72 °FHeavy rain. Fog.9 mph94%30.09 "Hg2 mi
8:00 PM73 °FPassing clouds.7 mph89%30.09 "Hg4 mi
7:00 PM70 °FHeavy rain. Fog.14 mph94%30.09 "Hg1 mi
6:00 PM73 °FPassing clouds.5 mph94%30.07 "Hg4 mi
5:00 PM39 °FScattered showers. Partly sunny.13 mph100%30.07 "HgN/A
4:00 PM39 °FScattered showers. Partly sunny.13 mph100%30.04 "HgN/A
3:00 PM41 °FScattered showers. Broken clouds.12 mph100%30.04 "Hg5 mi
2:00 PM77 °FBroken clouds.7 mph83%30.04 "HgN/A
1:00 PM77 °FScattered clouds.9 mph83%30.07 "HgN/A
12:00 PM75 °FLight rain. Scattered clouds.10 mph89%N/A4 mi
11:00 AM77 °FScattered showers. Scattered clouds.8 mph89%N/AN/A
Weather by CustomWeather, © 2014

See weather overviewHow to use our weather pages